Tracking 23612 objects as of 17-Sep-2021
HD Live streaming from Space Station
objects crossing your sky now
Track INSPIRATION-4

INTELSAT 2 (PAS 2)

Track INTELSAT 2 (PAS 2) now!
INTELSAT 2 (PAS 2) is classified as:


NORAD ID: 23175
Int'l Code: 1994-040A
Perigee: 36,074.2 km
Apogee: 36,121.7 km
Inclination: 9.2 °
Period: 1,451.7 minutes
Semi major axis: 42468 km
RCS: 6.3096 m2 (large)
Launch date: July 8, 1994
Source: United States (US)
Launch site: FRENCH GUIANA (FRGUI)

12 Ku-band; Asia-Pacific.
aabbcc
Your satellite tracking list
Your tracking list is empty




NASA's NSSDC Master Catalog

Two Line Element Set (TLE):
1 23175U 94040A   21259.28059044 -.00000174  00000-0  00000-0 0  9999
2 23175   9.2476  46.6244 0005585  42.7953 186.4827  0.99196377 98438
Source of the keplerian elements: AFSPC